Regional Weather Roundup
Issued by NWS

Home | Current Version | Previous Version | Text Only | Print | Product List | Glossary Off
Versions: 1 2 3 4 5 6 7 8 9 10 11 12 13 14 15 16 17 18 19 20 21 22 23 24 25 26 27 28 29 30 31 32 33 34 35 36 37 38 39 40 41 42 43 44 45 46 47 48 49 50

000
ASUS43 KBIS 301210
RWRND

NORTH DAKOTA REGIONAL WEATHER ROUNDUP
NATIONAL WEATHER SERVICE BISMARCK ND
700 AM CDT SUN APR 30 2017

NOTE: "FAIR" INDICATES FEW OR NO CLOUDS BELOW 12,000 FEET WITH NO
SIGNIFICANT WEATHER AND/OR OBSTRUCTIONS TO VISIBILITY.


NDZ001>003-009>011-017-301300-
NORTHWEST NORTH DAKOTA

CITY           SKY/WX    TMP DP  RH WIND       PRES   REMARKS
WILLISTON      FAIR      32  25  75 S5        30.03S
6HR MIN TEMP:  28; 6HR MAX TEMP:  45;

MINOT          FAIR      44  22  41 S13       30.05F
MINOT AFB      PTCLDY    39  24  55 SW10      30.04F
$$

NDZ018>021-031>035-040>046-301300-
SOUTHWEST NORTH DAKOTA

CITY           SKY/WX    TMP DP  RH WIND       PRES   REMARKS
BISMARCK       FAIR      32  27  81 NE7       30.11F
6HR MIN TEMP:  28; 6HR MAX TEMP:  43;

DICKINSON      FAIR      28  19  69 S7        30.05F
GARRISON         N/A     34  21  59 S3        30.07F
6HR MIN TEMP:  32; 6HR MAX TEMP:  40;

HETTINGER ARPT CLEAR     22  17  81 NW3       30.08F
$$

NDZ004>008-012>016-024-026-027-054-301300-
NORTHEAST NORTH DAKOTA

CITY           SKY/WX    TMP DP  RH WIND       PRES   REMARKS
GRAND FORKS    CLOUDY    38  31  76 SE6       30.16F
GRND FRKS AFB  CLEAR     37  27  68 S7        30.15F
DEVILS LAKE    FAIR      41  28  60 SW3       30.13
$$

NDZ022-023-025-028>030-036>039-047>053-301300-
SOUTHEAST NORTH DAKOTA

CITY           SKY/WX    TMP DP  RH WIND       PRES   REMARKS
FARGO          CLEAR     34  27  75 NE5       30.14F
6HR MIN TEMP:  32; 6HR MAX TEMP:  44;

JAMESTOWN      FAIR      34  30  85 N6        30.11F
$$





USA.gov is the U.S. government's official web portal to all federal, state and local government web resources and services.